| time (UTC) | temp F | wind direction | speed MPH | gust MPH | rain 1hr in | rain 24hr in | rain mn in | humidity % | barometer mb |
| 20260510011020 | 58 | 352 | 1.0 | 4.0 | 0.00 | 0.07 | 0.07 | 83 | 1009.1 |
| 20260510010517 | 58 | 352 | 0.0 | 2.0 | 0.00 | 0.07 | 0.07 | 82 | 1009.0 |
| 20260510010036 | 59 | 352 | 0.0 | 1.0 | 0.00 | 0.07 | 0.07 | 82 | 1009.0 |
| 20260510005533 | 59 | 352 | 0.0 | 5.0 | 0.00 | 0.07 | 0.07 | 80 | 1008.8 |
| 20260510005052 | 60 | 352 | 1.0 | 5.0 | 0.00 | 0.07 | 0.07 | 80 | 1008.8 |
| 20260510004529 | 60 | 352 | 1.0 | 5.0 | 0.00 | 0.07 | 0.07 | 79 | 1008.7 |
| 20260510004026 | 60 | 352 | 3.0 | 5.0 | 0.00 | 0.07 | 0.07 | 79 | 1008.7 |
| 20260510003522 | 60 | 352 | 0.0 | 0.0 | 0.00 | 0.07 | 0.07 | 79 | 1008.6 |
| 20260510003020 | 60 | 352 | 0.0 | 0.0 | 0.00 | 0.07 | 0.07 | 78 | 1008.6 |
| 20260510002517 | 61 | 352 | 0.0 | 2.0 | 0.00 | 0.07 | 0.07 | 77 | 1008.5 |
| 20260510002035 | 61 | 352 | 0.0 | 2.0 | 0.00 | 0.07 | 0.07 | 76 | 1008.4 |
| 20260510001555 | 62 | 352 | 0.0 | 2.0 | 0.00 | 0.07 | 0.07 | 75 | 1008.4 |
| 20260510001053 | 62 | 352 | 1.0 | 2.0 | 0.00 | 0.07 | 0.07 | 75 | 1008.5 |
| 20260510000530 | 62 | 352 | 1.0 | 2.0 | 0.00 | 0.07 | 0.07 | 74 | 1008.5 |
| 20260510000028 | 63 | 352 | 0.0 | 2.0 | 0.00 | 0.07 | 0.07 | 73 | 1008.6 |
| 20260509235526 | 64 | 352 | 0.0 | 2.0 | 0.00 | 0.07 | 0.07 | 73 | 1008.5 |
| 20260509235022 | 64 | 352 | 1.0 | 2.0 | 0.00 | 0.07 | 0.07 | 71 | 1008.4 |
| 20260509234520 | 64 | 352 | 1.0 | 3.0 | 0.00 | 0.07 | 0.07 | 71 | 1008.4 |
| 20260509234017 | 64 | 352 | 1.0 | 7.0 | 0.00 | 0.07 | 0.07 | 71 | 1008.4 |
| 20260509233531 | 65 | 352 | 2.0 | 7.0 | 0.00 | 0.07 | 0.07 | 70 | 1008.4 |
| 20260509233049 | 65 | 353 | 3.0 | 6.0 | 0.00 | 0.07 | 0.07 | 70 | 1008.3 |
| 20260509232526 | 65 | 353 | 3.0 | 6.0 | 0.00 | 0.07 | 0.07 | 69 | 1008.4 |
| 20260509232023 | 65 | 353 | 2.0 | 5.0 | 0.00 | 0.07 | 0.07 | 69 | 1008.5 |
| 20260509231521 | 65 | 353 | 2.0 | 5.0 | 0.00 | 0.07 | 0.07 | 69 | 1008.5 |
| 20260509231019 | 65 | 353 | 3.0 | 6.0 | 0.00 | 0.07 | 0.07 | 69 | 1008.3 |
| 20260509230538 | 66 | 353 | 4.0 | 6.0 | 0.00 | 0.07 | 0.07 | 69 | 1008.4 |
| 20260509230034 | 65 | 353 | 1.0 | 4.0 | 0.00 | 0.07 | 0.07 | 69 | 1008.4 |
| 20260509225532 | 65 | 353 | 1.0 | 6.0 | 0.00 | 0.07 | 0.07 | 69 | 1008.4 |
| 20260509225031 | 65 | 353 | 3.0 | 7.0 | 0.00 | 0.07 | 0.07 | 70 | 1008.6 |
| 20260509224527 | 66 | 353 | 4.0 | 7.0 | 0.00 | 0.07 | 0.07 | 68 | 1008.7 |
| 20260509224045 | 66 | 353 | 5.0 | 7.0 | 0.00 | 0.07 | 0.07 | 67 | 1008.6 |
| 20260509223521 | 66 | 353 | 4.0 | 9.0 | 0.00 | 0.07 | 0.07 | 67 | 1008.6 |
| 20260509223019 | 66 | 353 | 6.0 | 9.0 | 0.00 | 0.07 | 0.07 | 68 | 1008.6 |
| 20260509222518 | 66 | 5 | 5.0 | 12.0 | 0.00 | 0.07 | 0.07 | 67 | 1008.7 |
| 20260509222036 | 66 | 344 | 7.0 | 13.0 | 0.00 | 0.07 | 0.07 | 69 | 1008.7 |
| 20260509221554 | 67 | 352 | 8.0 | 13.0 | 0.00 | 0.07 | 0.07 | 67 | 1008.6 |
| 20260509221030 | 67 | 300 | 6.0 | 9.0 | 0.00 | 0.07 | 0.07 | 65 | 1008.6 |
| 20260509220549 | 67 | 360 | 3.0 | 9.0 | 0.00 | 0.07 | 0.07 | 62 | 1008.6 |
| 20260509220046 | 67 | 341 | 5.0 | 9.0 | 0.00 | 0.07 | 0.07 | 64 | 1008.5 |
| 20260509215523 | 67 | 305 | 3.0 | 10.0 | 0.00 | 0.07 | 0.07 | 65 | 1008.4 |
| 20260509215021 | 67 | 304 | 6.0 | 10.0 | 0.00 | 0.07 | 0.07 | 66 | 1008.5 |
| 20260509214518 | 67 | 356 | 6.0 | 9.0 | 0.00 | 0.07 | 0.07 | 65 | 1008.4 |
| 20260509214017 | 67 | 348 | 3.0 | 8.0 | 0.00 | 0.07 | 0.07 | 63 | 1008.5 |
| 20260509213534 | 67 | 348 | 6.0 | 9.0 | 0.00 | 0.07 | 0.07 | 63 | 1008.5 |
| 20260509213029 | 67 | 348 | 5.0 | 9.0 | 0.00 | 0.07 | 0.07 | 64 | 1008.3 |
| 20260509212548 | 67 | 5 | 4.0 | 10.0 | 0.00 | 0.07 | 0.07 | 64 | 1008.4 |
| 20260509212024 | 67 | 5 | 5.0 | 10.0 | 0.00 | 0.07 | 0.07 | 64 | 1008.6 |
| 20260509211522 | 67 | 352 | 5.0 | 10.0 | 0.00 | 0.07 | 0.07 | 66 | 1008.6 |
| 20260509211020 | 67 | 337 | 6.0 | 11.0 | 0.00 | 0.07 | 0.07 | 65 | 1008.6 |
| 20260509210538 | 67 | 61 | 7.0 | 12.0 | 0.00 | 0.07 | 0.07 | 66 | 1008.7 |
| 20260509210035 | 67 | 5 | 7.0 | 12.0 | 0.00 | 0.07 | 0.07 | 62 | 1008.7 |
| 20260509205532 | 67 | 65 | 3.0 | 9.0 | 0.00 | 0.07 | 0.07 | 62 | 1008.8 |
| 20260509205030 | 66 | 327 | 6.0 | 9.0 | 0.00 | 0.07 | 0.07 | 64 | 1008.9 |
| 20260509204528 | 67 | 254 | 4.0 | 8.0 | 0.00 | 0.07 | 0.07 | 61 | 1008.9 |
| 20260509204026 | 67 | 188 | 1.0 | 4.0 | 0.00 | 0.07 | 0.07 | 57 | 1009.0 |
| 20260509203523 | 67 | 188 | 2.0 | 5.0 | 0.00 | 0.07 | 0.07 | 55 | 1009.0 |
| 20260509203021 | 67 | 188 | 2.0 | 6.0 | 0.00 | 0.07 | 0.07 | 56 | 1009.0 |
| 20260509202517 | 67 | 188 | 3.0 | 7.0 | 0.00 | 0.07 | 0.07 | 56 | 1008.9 |
| 20260509202031 | 67 | 188 | 3.0 | 7.0 | 0.00 | 0.07 | 0.07 | 58 | 1008.9 |
| 20260509201529 | 66 | 188 | 0.0 | 7.0 | 0.00 | 0.07 | 0.07 | 59 | 1009.0 |
| 20260509201027 | 66 | 188 | 5.0 | 8.0 | 0.00 | 0.07 | 0.07 | 58 | 1009.0 |
| 20260509200524 | 66 | 187 | 3.0 | 8.0 | 0.00 | 0.07 | 0.07 | 58 | 1009.0 |
| 20260509200022 | 66 | 199 | 4.0 | 6.0 | 0.00 | 0.07 | 0.07 | 59 | 1009.0 |
| 20260509195516 | 66 | 199 | 2.0 | 5.0 | 0.00 | 0.07 | 0.07 | 60 | 1009.0 |
| 20260509195034 | 66 | 199 | 1.0 | 7.0 | 0.00 | 0.07 | 0.07 | 60 | 1009.1 |
| 20260509194553 | 66 | 199 | 3.0 | 7.0 | 0.00 | 0.07 | 0.07 | 62 | 1009.0 |
| 20260509194029 | 66 | 315 | 4.0 | 7.0 | 0.00 | 0.07 | 0.07 | 61 | 1009.0 |
| 20260509193527 | 66 | 315 | 3.0 | 6.0 | 0.00 | 0.07 | 0.07 | 62 | 1009.0 |
| 20260509193046 | 66 | 315 | 1.0 | 5.0 | 0.00 | 0.07 | 0.07 | 60 | 1009.0 |
| 20260509192524 | 67 | 315 | 2.0 | 6.0 | 0.00 | 0.07 | 0.07 | 59 | 1009.1 |
| 20260509192021 | 67 | 315 | 3.0 | 6.0 | 0.00 | 0.07 | 0.07 | 62 | 1009.1 |
| 20260509191518 | 67 | 48 | 4.0 | 11.0 | 0.00 | 0.07 | 0.07 | 59 | 1008.9 |
| 20260509191016 | 67 | 75 | 6.0 | 11.0 | 0.00 | 0.07 | 0.07 | 61 | 1009.0 |
| 20260509190553 | 65 | 284 | 1.0 | 6.0 | 0.00 | 0.07 | 0.07 | 62 | 1009.0 |
| 20260509190030 | 65 | 284 | 1.0 | 7.0 | 0.00 | 0.07 | 0.07 | 63 | 1009.1 |
| 20260509185528 | 66 | 284 | 5.0 | 7.0 | 0.00 | 0.07 | 0.07 | 64 | 1009.1 |
| 20260509185046 | 65 | 46 | 2.0 | 7.0 | 0.00 | 0.07 | 0.07 | 62 | 1009.2 |
| 20260509184523 | 67 | 47 | 3.0 | 7.0 | 0.00 | 0.07 | 0.07 | 64 | 1009.2 |
| 20260509184020 | 66 | 48 | 1.0 | 7.0 | 0.00 | 0.07 | 0.07 | 66 | 1009.5 |
| 20260509183518 | 66 | 48 | 4.0 | 7.0 | 0.00 | 0.07 | 0.07 | 66 | 1009.3 |
| 20260509183016 | 64 | 48 | 3.0 | 8.0 | 0.00 | 0.07 | 0.07 | 67 | 1009.5 |
| 20260509182533 | 64 | 50 | 5.0 | 8.0 | 0.00 | 0.07 | 0.07 | 66 | 1009.7 |
| 20260509182031 | 65 | 50 | 5.0 | 7.0 | 0.00 | 0.07 | 0.07 | 67 | 1009.7 |
| 20260509181550 | 64 | 88 | 4.0 | 6.0 | 0.00 | 0.07 | 0.07 | 68 | 1009.7 |
| 20260509181026 | 63 | 88 | 4.0 | 10.0 | 0.00 | 0.07 | 0.07 | 69 | 1009.8 |
| 20260509180523 | 63 | 88 | 6.0 | 11.0 | 0.00 | 0.07 | 0.07 | 69 | 1009.9 |
| 20260509180020 | 62 | 59 | 4.0 | 9.0 | 0.00 | 0.07 | 0.07 | 70 | 1010.0 |
| 20260509175518 | 62 | 171 | 4.0 | 7.0 | 0.00 | 0.07 | 0.07 | 72 | 1010.3 |
| 20260509175035 | 62 | 171 | 2.0 | 7.0 | 0.00 | 0.07 | 0.07 | 71 | 1010.6 |
| 20260509174533 | 62 | 170 | 2.0 | 6.0 | 0.00 | 0.07 | 0.07 | 72 | 1010.6 |
| 20260509174031 | 62 | 179 | 4.0 | 6.0 | 0.00 | 0.07 | 0.07 | 74 | 1010.7 |
| 20260509173528 | 61 | 179 | 1.0 | 8.0 | 0.00 | 0.07 | 0.07 | 73 | 1010.7 |
| 20260509173026 | 61 | 179 | 5.0 | 8.0 | 0.00 | 0.07 | 0.07 | 74 | 1010.7 |
| 20260509172522 | 60 | 34 | 2.0 | 7.0 | 0.00 | 0.07 | 0.07 | 72 | 1010.9 |
| 20260509172020 | 60 | 34 | 3.0 | 7.0 | 0.00 | 0.07 | 0.07 | 76 | 1010.9 |
| 20260509171518 | 60 | 34 | 2.0 | 5.0 | 0.00 | 0.07 | 0.07 | 74 | 1011.0 |
| 20260509171015 | 59 | 34 | 1.0 | 5.0 | 0.00 | 0.07 | 0.07 | 77 | 1011.1 |
| 20260509170534 | 59 | 34 | 2.0 | 6.0 | 0.00 | 0.07 | 0.07 | 78 | 1011.0 |
| 20260509170031 | 59 | 34 | 4.0 | 7.0 | 0.00 | 0.07 | 0.07 | 77 | 1011.1 |
| 20260509165545 | 59 | 34 | 4.0 | 7.0 | 0.00 | 0.07 | 0.07 | 78 | 1011.1 |
| 20260509165020 | 58 | 41 | 3.0 | 7.0 | 0.00 | 0.07 | 0.07 | 77 | 1011.0 |
| 20260509164518 | 59 | 150 | 2.0 | 6.0 | 0.00 | 0.07 | 0.07 | 77 | 1011.0 |
| 20260509164016 | 59 | 150 | 2.0 | 6.0 | 0.00 | 0.07 | 0.07 | 77 | 1011.0 |
| 20260509163533 | 58 | 150 | 0.0 | 4.0 | 0.00 | 0.07 | 0.07 | 76 | 1010.9 |
| 20260509163030 | 58 | 150 | 0.0 | 6.0 | 0.00 | 0.07 | 0.07 | 77 | 1011.0 |
| 20260509162528 | 58 | 150 | 1.0 | 6.0 | 0.00 | 0.07 | 0.07 | 79 | 1011.0 |
| 20260509162024 | 58 | 150 | 2.0 | 5.0 | 0.00 | 0.07 | 0.07 | 79 | 1011.1 |
| 20260509161543 | 58 | 150 | 3.0 | 6.0 | 0.00 | 0.07 | 0.07 | 79 | 1011.3 |
| 20260509161041 | 58 | 150 | 3.0 | 6.0 | 0.00 | 0.07 | 0.07 | 79 | 1011.2 |
| 20260509160539 | 58 | 150 | 0.0 | 7.0 | 0.00 | 0.07 | 0.07 | 80 | 1011.2 |
| 20260509160016 | 58 | 150 | 1.0 | 7.0 | 0.00 | 0.07 | 0.07 | 81 | 1011.1 |
| 20260509155534 | 58 | 152 | 3.0 | 6.0 | 0.00 | 0.07 | 0.07 | 80 | 1011.2 |
| 20260509155031 | 58 | 162 | 3.0 | 6.0 | 0.00 | 0.07 | 0.07 | 80 | 1011.2 |
| 20260509154530 | 58 | 92 | 2.0 | 6.0 | 0.00 | 0.07 | 0.07 | 79 | 1011.1 |
| 20260509154027 | 58 | 92 | 2.0 | 7.0 | 0.00 | 0.07 | 0.07 | 82 | 1011.1 |
| 20260509153525 | 58 | 92 | 3.0 | 7.0 | 0.00 | 0.07 | 0.07 | 80 | 1011.2 |
| 20260509153044 | 57 | 92 | 3.0 | 8.0 | 0.00 | 0.07 | 0.07 | 81 | 1011.2 |
| 20260509152541 | 57 | 92 | 4.0 | 7.0 | 0.00 | 0.07 | 0.07 | 81 | 1011.1 |
| 20260509152018 | 57 | 92 | 4.0 | 11.0 | 0.00 | 0.07 | 0.07 | 83 | 1011.2 |
| 20260509151516 | 57 | 93 | 4.0 | 11.0 | 0.00 | 0.07 | 0.07 | 83 | 1011.2 |
| 20260509151033 | 57 | 54 | 4.0 | 7.0 | 0.00 | 0.07 | 0.07 | 87 | 1011.2 |
| 20260509150532 | 56 | 54 | 2.0 | 7.0 | 0.01 | 0.07 | 0.07 | 87 | 1011.2 |
| 20260509150027 | 56 | 54 | 6.0 | 7.0 | 0.01 | 0.07 | 0.07 | 88 | 1011.2 |
| 20260509145524 | 56 | 54 | 3.0 | 6.0 | 0.01 | 0.08 | 0.07 | 89 | 1011.2 |
| 20260509145021 | 55 | 54 | 3.0 | 7.0 | 0.01 | 0.08 | 0.07 | 90 | 1011.4 |
| 20260509144518 | 55 | 54 | 4.0 | 7.0 | 0.01 | 0.08 | 0.07 | 90 | 1011.2 |
| 20260509144016 | 55 | 55 | 5.0 | 7.0 | 0.01 | 0.08 | 0.07 | 89 | 1011.3 |
| 20260509143532 | 55 | 55 | 3.0 | 6.0 | 0.02 | 0.08 | 0.07 | 89 | 1011.2 |
| 20260509143051 | 54 | 55 | 2.0 | 5.0 | 0.03 | 0.08 | 0.07 | 90 | 1011.3 |
| 20260509142527 | 54 | 55 | 2.0 | 5.0 | 0.03 | 0.08 | 0.07 | 90 | 1011.3 |
| 20260509142044 | 54 | 55 | 2.0 | 5.0 | 0.04 | 0.08 | 0.07 | 90 | 1011.2 |
| 20260509141521 | 54 | 55 | 1.0 | 3.0 | 0.04 | 0.08 | 0.07 | 91 | 1011.2 |
| 20260509141018 | 53 | 55 | 1.0 | 5.0 | 0.04 | 0.08 | 0.07 | 90 | 1011.3 |
| 20260509140531 | 53 | 55 | 2.0 | 5.0 | 0.04 | 0.07 | 0.06 | 90 | 1011.2 |
| 20260509140029 | 53 | 55 | 1.0 | 4.0 | 0.04 | 0.07 | 0.06 | 91 | 1011.1 |
| 20260509135527 | 53 | 55 | 2.0 | 4.0 | 0.04 | 0.07 | 0.06 | 91 | 1011.1 |
| 20260509135025 | 53 | 55 | 0.0 | 4.0 | 0.05 | 0.07 | 0.06 | 91 | 1011.2 |
| 20260509134544 | 53 | 55 | 2.0 | 6.0 | 0.05 | 0.07 | 0.06 | 90 | 1011.3 |
| 20260509134042 | 53 | 55 | 1.0 | 7.0 | 0.04 | 0.06 | 0.05 | 90 | 1011.3 |
| 20260509133518 | 53 | 55 | 3.0 | 9.0 | 0.05 | 0.06 | 0.05 | 89 | 1011.3 |
| 20260509133034 | 53 | 55 | 5.0 | 9.0 | 0.04 | 0.05 | 0.04 | 89 | 1011.1 |
| 20260509132532 | 53 | 69 | 2.0 | 6.0 | 0.04 | 0.05 | 0.04 | 89 | 1011.1 |
| 20260509132029 | 53 | 69 | 4.0 | 7.0 | 0.03 | 0.04 | 0.03 | 89 | 1011.1 |
| 20260509131527 | 53 | 69 | 4.0 | 7.0 | 0.03 | 0.04 | 0.03 | 89 | 1011.2 |
| 20260509131025 | 53 | 69 | 5.0 | 7.0 | 0.03 | 0.04 | 0.03 | 88 | 1011.1 |
| 20260509130522 | 53 | 69 | 4.0 | 6.0 | 0.02 | 0.03 | 0.02 | 88 | 1011.3 |
| 20260509130020 | 53 | 69 | 3.0 | 6.0 | 0.02 | 0.03 | 0.02 | 87 | 1011.3 |
| 20260509125518 | 53 | 75 | 4.0 | 7.0 | 0.02 | 0.03 | 0.02 | 87 | 1011.3 |
| 20260509125034 | 54 | 75 | 3.0 | 7.0 | 0.01 | 0.02 | 0.01 | 87 | 1011.3 |
| 20260509124553 | 53 | 75 | 5.0 | 7.0 | 0.01 | 0.02 | 0.01 | 86 | 1011.2 |
| 20260509124030 | 54 | 75 | 4.0 | 7.0 | 0.01 | 0.02 | 0.01 | 85 | 1011.2 |
| 20260509123549 | 54 | 75 | 5.0 | 7.0 | 0.00 | 0.01 | 0.00 | 84 | 1011.2 |
| 20260509123026 | 54 | 77 | 5.0 | 7.0 | 0.00 | 0.01 | 0.00 | 83 | 1011.2 |
| 20260509122524 | 55 | 227 | 3.0 | 6.0 | 0.00 | 0.01 | 0.00 | 82 | 1011.3 |
| 20260509122042 | 55 | 250 | 3.0 | 7.0 | 0.00 | 0.01 | 0.00 | 81 | 1011.2 |
| 20260509121520 | 55 | 250 | 4.0 | 7.0 | 0.00 | 0.01 | 0.00 | 80 | 1011.2 |
| 20260509121017 | 55 | 250 | 3.0 | 7.0 | 0.00 | 0.01 | 0.00 | 80 | 1011.2 |
| 20260509120535 | 55 | 250 | 4.0 | 7.0 | 0.00 | 0.01 | 0.00 | 80 | 1011.3 |
| 20260509120033 | 55 | 250 | 3.0 | 7.0 | 0.00 | 0.01 | 0.00 | 78 | 1011.2 |
| 20260509115530 | 55 | 249 | 5.0 | 7.0 | 0.00 | 0.01 | 0.00 | 78 | 1011.4 |
| 20260509115048 | 55 | 247 | 2.0 | 6.0 | 0.00 | 0.01 | 0.00 | 76 | 1011.4 |
| 20260509114546 | 55 | 247 | 4.0 | 6.0 | 0.00 | 0.01 | 0.00 | 77 | 1011.4 |
| 20260509114023 | 55 | 247 | 2.0 | 5.0 | 0.00 | 0.01 | 0.00 | 76 | 1011.4 |
| 20260509113521 | 55 | 247 | 2.0 | 5.0 | 0.00 | 0.01 | 0.00 | 76 | 1011.4 |
| 20260509113018 | 55 | 247 | 1.0 | 5.0 | 0.00 | 0.01 | 0.00 | 76 | 1011.3 |
| 20260509112516 | 54 | 247 | 1.0 | 5.0 | 0.00 | 0.01 | 0.00 | 77 | 1011.2 |
| 20260509112035 | 54 | 247 | 3.0 | 5.0 | 0.00 | 0.01 | 0.00 | 78 | 1011.2 |
| 20260509111532 | 54 | 247 | 2.0 | 5.0 | 0.00 | 0.01 | 0.00 | 77 | 1011.2 |
| 20260509111049 | 54 | 247 | 0.0 | 4.0 | 0.00 | 0.01 | 0.00 | 76 | 1011.1 |
| 20260509110525 | 54 | 247 | 1.0 | 4.0 | 0.00 | 0.01 | 0.00 | 75 | 1011.0 |
| 20260509110022 | 54 | 247 | 1.0 | 2.0 | 0.00 | 0.01 | 0.00 | 74 | 1011.1 |
| 20260509105519 | 54 | 247 | 0.0 | 4.0 | 0.00 | 0.01 | 0.00 | 73 | 1011.0 |
| 20260509105016 | 54 | 247 | 1.0 | 6.0 | 0.00 | 0.01 | 0.00 | 73 | 1011.0 |
| 20260509104530 | 54 | 247 | 2.0 | 7.0 | 0.00 | 0.01 | 0.00 | 73 | 1011.0 |
| 20260509104026 | 54 | 247 | 3.0 | 7.0 | 0.00 | 0.01 | 0.00 | 72 | 1010.8 |
| 20260509103545 | 54 | 247 | 5.0 | 8.0 | 0.00 | 0.01 | 0.00 | 72 | 1010.7 |
| 20260509103021 | 54 | 247 | 4.0 | 8.0 | 0.00 | 0.01 | 0.00 | 73 | 1010.8 |
| 20260509102518 | 54 | 221 | 3.0 | 7.0 | 0.00 | 0.01 | 0.00 | 74 | 1010.8 |
| 20260509102035 | 54 | 221 | 3.0 | 7.0 | 0.00 | 0.01 | 0.00 | 75 | 1010.8 |
| 20260509101554 | 54 | 219 | 3.0 | 5.0 | 0.00 | 0.01 | 0.00 | 75 | 1010.6 |
| 20260509101052 | 54 | 219 | 2.0 | 5.0 | 0.00 | 0.01 | 0.00 | 75 | 1010.5 |
| 20260509100520 | 54 | 219 | 3.0 | 5.0 | 0.00 | 0.01 | 0.00 | 74 | 1010.4 |
| 20260509100018 | 55 | 219 | 1.0 | 4.0 | 0.00 | 0.01 | 0.00 | 73 | 1010.3 |
| 20260509095516 | 54 | 219 | 1.0 | 4.0 | 0.00 | 0.01 | 0.00 | 72 | 1010.3 |
| 20260509095034 | 54 | 219 | 0.0 | 2.0 | 0.00 | 0.01 | 0.00 | 72 | 1010.2 |
| 20260509094532 | 54 | 219 | 1.0 | 2.0 | 0.00 | 0.01 | 0.00 | 72 | 1010.3 |
| 20260509094030 | 55 | 219 | 0.0 | 4.0 | 0.00 | 0.01 | 0.00 | 71 | 1010.3 |
| 20260509093528 | 55 | 219 | 1.0 | 5.0 | 0.00 | 0.01 | 0.00 | 71 | 1010.3 |
| 20260509093047 | 55 | 192 | 1.0 | 4.0 | 0.00 | 0.01 | 0.00 | 71 | 1010.2 |
| 20260509092523 | 55 | 192 | 2.0 | 4.0 | 0.00 | 0.01 | 0.00 | 71 | 1010.4 |
| 20260509092021 | 55 | 192 | 2.0 | 3.0 | 0.00 | 0.01 | 0.00 | 71 | 1010.2 |
| 20260509091518 | 55 | 192 | 0.0 | 2.0 | 0.00 | 0.01 | 0.00 | 71 | 1010.2 |
| 20260509091035 | 55 | 192 | 1.0 | 5.0 | 0.00 | 0.01 | 0.00 | 71 | 1010.2 |
| 20260509090533 | 55 | 192 | 2.0 | 5.0 | 0.00 | 0.01 | 0.00 | 71 | 1010.2 |
| 20260509090031 | 55 | 192 | 2.0 | 5.0 | 0.00 | 0.01 | 0.00 | 71 | 1010.4 |
| 20260509085529 | 55 | 192 | 1.0 | 3.0 | 0.00 | 0.01 | 0.00 | 72 | 1010.3 |
| 20260509085026 | 55 | 192 | 1.0 | 4.0 | 0.00 | 0.01 | 0.00 | 72 | 1010.4 |
| 20260509084524 | 54 | 192 | 1.0 | 2.0 | 0.00 | 0.01 | 0.00 | 72 | 1010.4 |
| 20260509084043 | 54 | 192 | 1.0 | 5.0 | 0.00 | 0.01 | 0.00 | 71 | 1010.4 |
| 20260509083520 | 54 | 192 | 1.0 | 5.0 | 0.00 | 0.01 | 0.00 | 72 | 1010.5 |
| 20260509083018 | 54 | 192 | 2.0 | 5.0 | 0.00 | 0.01 | 0.00 | 73 | 1010.4 |
| 20260509082516 | 54 | 192 | 1.0 | 2.0 | 0.00 | 0.01 | 0.00 | 72 | 1010.5 |
| 20260509082033 | 54 | 192 | 0.0 | 1.0 | 0.00 | 0.01 | 0.00 | 72 | 1010.5 |
| 20260509081551 | 55 | 192 | 0.0 | 1.0 | 0.00 | 0.01 | 0.00 | 72 | 1010.4 |
| 20260509081029 | 54 | 192 | 0.0 | 2.0 | 0.00 | 0.01 | 0.00 | 72 | 1010.5 |
| 20260509080527 | 54 | 192 | 0.0 | 3.0 | 0.00 | 0.01 | 0.00 | 72 | 1010.6 |
| 20260509080042 | 54 | 192 | 1.0 | 4.0 | 0.00 | 0.01 | 0.00 | 72 | 1010.6 |
| 20260509075534 | 54 | 192 | 2.0 | 2.0 | 0.00 | 0.01 | 0.00 | 72 | 1010.6 |
| 20260509075020 | 54 | 192 | 0.0 | 0.0 | 0.00 | 0.01 | 0.00 | 72 | 1010.6 |
| 20260509074518 | 55 | 192 | 0.0 | 0.0 | 0.00 | 0.01 | 0.00 | 71 | 1010.5 |
| 20260509074037 | 55 | 192 | 0.0 | 2.0 | 0.00 | 0.01 | 0.00 | 70 | 1010.6 |
| 20260509073555 | 55 | 192 | 0.0 | 5.0 | 0.00 | 0.01 | 0.00 | 70 | 1010.6 |
| 20260509073056 | 55 | 192 | 0.0 | 5.0 | 0.00 | 0.01 | 0.00 | 69 | 1010.7 |
| 20260509072533 | 55 | 192 | 2.0 | 5.0 | 0.00 | 0.01 | 0.00 | 68 | 1010.6 |
| 20260509072031 | 55 | 192 | 1.0 | 5.0 | 0.00 | 0.01 | 0.00 | 67 | 1010.5 |
| 20260509071528 | 55 | 192 | 2.0 | 5.0 | 0.00 | 0.01 | 0.00 | 67 | 1010.7 |
| 20260509071026 | 55 | 192 | 2.0 | 5.0 | 0.00 | 0.01 | 0.00 | 67 | 1010.7 |
| 20260509070522 | 56 | 192 | 2.0 | 6.0 | 0.00 | 0.01 | 0.00 | 66 | 1010.7 |
| 20260509070020 | 56 | 192 | 2.0 | 6.0 | 0.00 | 0.01 | 0.00 | 66 | 1010.7 |
| 20260509065517 | 56 | 192 | 3.0 | 7.0 | 0.00 | 0.01 | 0.00 | 65 | 1010.6 |
| 20260509065035 | 56 | 192 | 1.0 | 8.0 | 0.00 | 0.01 | 0.00 | 65 | 1010.6 |
| 20260509064532 | 55 | 194 | 4.0 | 8.0 | 0.00 | 0.01 | 0.00 | 67 | 1010.5 |
| 20260509064028 | 55 | 193 | 5.0 | 7.0 | 0.00 | 0.01 | 0.00 | 67 | 1010.6 |
| 20260509063548 | 55 | 193 | 5.0 | 7.0 | 0.00 | 0.01 | 0.00 | 68 | 1010.6 |
| 20260509063024 | 54 | 193 | 3.0 | 7.0 | 0.00 | 0.01 | 0.00 | 70 | 1010.7 |
| 20260509062538 | 55 | 193 | 5.0 | 6.0 | 0.00 | 0.01 | 0.00 | 69 | 1010.7 |
| 20260509062035 | 55 | 193 | 2.0 | 3.0 | 0.00 | 0.01 | 0.00 | 68 | 1010.7 |
| 20260509061529 | 55 | 193 | 0.0 | 2.0 | 0.00 | 0.01 | 0.00 | 67 | 1010.8 |
| 20260509061027 | 55 | 193 | 1.0 | 2.0 | 0.00 | 0.01 | 0.00 | 66 | 1010.8 |
| 20260509060524 | 56 | 193 | 0.0 | 1.0 | 0.00 | 0.01 | 0.00 | 65 | 1010.9 |
| 20260509060023 | 56 | 193 | 0.0 | 2.0 | 0.00 | 0.01 | 0.00 | 65 | 1010.9 |
| 20260509055520 | 56 | 193 | 1.0 | 2.0 | 0.00 | 0.01 | 0.00 | 65 | 1011.1 |
| 20260509055037 | 56 | 193 | 1.0 | 5.0 | 0.00 | 0.01 | 0.00 | 65 | 1011.0 |
| 20260509054555 | 57 | 193 | 1.0 | 5.0 | 0.00 | 0.01 | 0.00 | 65 | 1011.1 |
| 20260509054053 | 56 | 194 | 1.0 | 5.0 | 0.00 | 0.01 | 0.00 | 66 | 1011.0 |
| 20260509053529 | 56 | 194 | 2.0 | 7.0 | 0.00 | 0.01 | 0.00 | 67 | 1011.0 |
| 20260509053028 | 56 | 194 | 2.0 | 7.0 | 0.00 | 0.01 | 0.00 | 67 | 1011.0 |
| 20260509052546 | 56 | 194 | 2.0 | 5.0 | 0.00 | 0.01 | 0.00 | 66 | 1011.0 |
| 20260509052022 | 56 | 194 | 1.0 | 5.0 | 0.00 | 0.01 | 0.00 | 66 | 1010.9 |
| 20260509051520 | 56 | 194 | 1.0 | 5.0 | 0.00 | 0.01 | 0.00 | 69 | 1010.9 |
| 20260509051017 | 56 | 194 | 2.0 | 7.0 | 0.00 | 0.01 | 0.00 | 70 | 1011.0 |
| 20260509050515 | 56 | 194 | 5.0 | 7.0 | 0.00 | 0.01 | 0.00 | 71 | 1011.1 |
| 20260509050058 | 55 | 162 | 3.0 | 6.0 | 0.00 | 0.01 | 0.00 | 70 | 1011.0 |
| 20260509045530 | 55 | 160 | 0.0 | 4.0 | 0.00 | 0.01 | 0.00 | 72 | 1010.9 |
| 20260509045027 | 55 | 160 | 1.0 | 2.0 | 0.00 | 0.01 | 0.00 | 72 | 1010.8 |
| 20260509044524 | 55 | 160 | 0.0 | 4.0 | 0.00 | 0.01 | 0.00 | 72 | 1010.8 |
| 20260509044021 | 55 | 160 | 0.0 | 6.0 | 0.00 | 0.01 | 0.00 | 72 | 1010.9 |
| 20260509043518 | 55 | 160 | 4.0 | 6.0 | 0.00 | 0.01 | 0.00 | 72 | 1011.0 |
| 20260509043016 | 56 | 169 | 4.0 | 5.0 | 0.00 | 0.01 | 0.00 | 70 | 1011.1 |
| 20260509042534 | 56 | 169 | 2.0 | 5.0 | 0.00 | 0.01 | 0.00 | 69 | 1011.1 |
| 20260509042030 | 56 | 169 | 0.0 | 5.0 | 0.00 | 0.01 | 0.00 | 67 | 1011.3 |
| 20260509041527 | 56 | 169 | 1.0 | 5.0 | 0.00 | 0.01 | 0.00 | 67 | 1011.3 |
| 20260509041024 | 56 | 169 | 2.0 | 5.0 | 0.00 | 0.01 | 0.00 | 67 | 1011.4 |
| 20260509040522 | 56 | 169 | 2.0 | 5.0 | 0.00 | 0.01 | 0.00 | 68 | 1011.4 |
| 20260509040020 | 56 | 168 | 2.0 | 5.0 | 0.00 | 0.01 | 0.00 | 68 | 1011.3 |
| 20260509035538 | 56 | 167 | 2.0 | 2.0 | 0.00 | 0.01 | 0.00 | 68 | 1011.4 |
| 20260509035035 | 55 | 167 | 1.0 | 5.0 | 0.00 | 0.01 | 0.00 | 68 | 1011.4 |
| 20260509034557 | 55 | 167 | 2.0 | 5.0 | 0.00 | 0.01 | 0.00 | 70 | 1011.4 |
| 20260509034050 | 55 | 167 | 1.0 | 2.0 | 0.00 | 0.01 | 0.00 | 69 | 1011.4 |
| 20260509033527 | 55 | 167 | 0.0 | 2.0 | 0.00 | 0.01 | 0.00 | 68 | 1011.3 |
| 20260509033025 | 56 | 167 | 1.0 | 5.0 | 0.00 | 0.01 | 0.00 | 67 | 1011.3 |
| 20260509032522 | 56 | 167 | 2.0 | 5.0 | 0.00 | 0.01 | 0.00 | 67 | 1011.3 |
| 20260509032019 | 56 | 167 | 2.0 | 5.0 | 0.00 | 0.01 | 0.00 | 66 | 1011.3 |
| 20260509031518 | 56 | 167 | 2.0 | 5.0 | 0.00 | 0.01 | 0.00 | 66 | 1011.4 |
| 20260509031057 | 56 | 167 | 2.0 | 6.0 | 0.00 | 0.01 | 0.00 | 66 | 1011.6 |
| 20260509030532 | 56 | 167 | 4.0 | 6.0 | 0.00 | 0.01 | 0.00 | 64 | 1011.5 |
| 20260509030031 | 57 | 167 | 1.0 | 4.0 | 0.00 | 0.01 | 0.00 | 63 | 1011.4 |
| 20260509025529 | 58 | 167 | 1.0 | 4.0 | 0.00 | 0.01 | 0.00 | 63 | 1011.5 |
| 20260509025027 | 58 | 167 | 1.0 | 5.0 | 0.00 | 0.01 | 0.00 | 63 | 1011.6 |
| 20260509024545 | 58 | 167 | 1.0 | 5.0 | 0.00 | 0.01 | 0.00 | 62 | 1011.6 |
| 20260509024021 | 58 | 167 | 3.0 | 5.0 | 0.00 | 0.01 | 0.00 | 61 | 1011.7 |
| 20260509023519 | 58 | 168 | 2.0 | 5.0 | 0.00 | 0.01 | 0.00 | 61 | 1011.6 |
| 20260509023038 | 58 | 168 | 2.0 | 5.0 | 0.00 | 0.01 | 0.00 | 61 | 1011.8 |
| 20260509022535 | 59 | 168 | 2.0 | 2.0 | 0.00 | 0.01 | 0.00 | 60 | 1011.8 |
| 20260509022032 | 59 | 168 | 1.0 | 5.0 | 0.00 | 0.01 | 0.00 | 60 | 1011.8 |
| 20260509021551 | 59 | 168 | 2.0 | 5.0 | 0.00 | 0.01 | 0.00 | 60 | 1011.8 |
| 20260509021027 | 59 | 168 | 2.0 | 5.0 | 0.00 | 0.01 | 0.00 | 60 | 1011.9 |
| 20260509020524 | 59 | 168 | 1.0 | 4.0 | 0.00 | 0.01 | 0.00 | 59 | 1011.9 |
| 20260509020023 | 59 | 168 | 1.0 | 2.0 | 0.00 | 0.01 | 0.00 | 58 | 1011.8 |
| 20260509015519 | 59 | 168 | 0.0 | 2.0 | 0.00 | 0.01 | 0.00 | 58 | 1011.8 |
| 20260509015017 | 59 | 168 | 1.0 | 4.0 | 0.00 | 0.01 | 0.00 | 58 | 1011.9 |
| 20260509014535 | 60 | 168 | 1.0 | 4.0 | 0.00 | 0.01 | 0.00 | 57 | 1011.6 |
| 20260509014053 | 60 | 167 | 2.0 | 5.0 | 0.00 | 0.01 | 0.00 | 57 | 1011.6 |
| 20260509013530 | 59 | 167 | 3.0 | 5.0 | 0.00 | 0.01 | 0.00 | 57 | 1011.5 |
| 20260509013027 | 59 | 168 | 1.0 | 4.0 | 0.00 | 0.01 | 0.00 | 58 | 1011.7 |
| 20260509012524 | 59 | 167 | 0.0 | 5.0 | 0.00 | 0.01 | 0.00 | 57 | 1011.6 |
| 20260509012021 | 59 | 168 | 2.0 | 5.0 | 0.00 | 0.01 | 0.00 | 59 | 1011.5 |
| 20260509011519 | 59 | 168 | 1.0 | 3.0 | 0.00 | 0.01 | 0.00 | 58 | 1011.5 |